Regional Weather Roundup
Issued by NWS

Home | Current Version | Previous Version | Text Only | Print | Product List | Glossary On
Versions: 1 2 3 4 5 6 7 8 9 10 11 12 13 14 15 16 17 18 19 20 21 22 23 24 25 26 27 28 29 30 31 32 33 34 35 36 37 38 39 40 41 42 43 44 45 46 47 48 49 50
000
ASUS44 KFWD 250915
RWRTX
NORTH TEXAS HOURLY WEATHER ROUNDUP
NATIONAL WEATHER SERVICE FORT WORTH TX
400 AM CDT FRI JUL 25 2014

NOTE: "FAIR" INDICATES FEW OR NO CLOUDS BELOW 12,000 FEET WITH NO
SIGNIFICANT WEATHER AND/OR OBSTRUCTIONS TO VISIBILITY.

TXZ118-119-251000-
DALLAS/FORT WORTH METROPLEX

CITY           SKY/WX    TMP DP  RH WIND       PRES   REMARKS
DFW AIRPORT    CLEAR     76  68  76 SE6       30.01S
DALLAS LOVE    CLEAR     77  71  82 SE6       30.01S
FTW MEACHAM    CLEAR     78  68  71 CALM      30.01S
DAL-EXECUTIVE  CLEAR     76  69  79 SE5       30.01F
FTW-ALLIANCE   CLEAR     74  68  81 CALM      30.00F
FTW-NAS-JRB    CLEAR     80  66  62 S6        30.05S
FTW-SPINKS     CLEAR     73  67  81 CALM      30.03S
ARLINGTON      CLEAR     73  67  81 CALM      30.01S
GRAND PRAIRIE  CLEAR     76  66  71 CALM      30.03R
ADDISON        CLEAR     77  70  79 SE5       30.03S
MESQUITE       CLEAR     72  70  94 SE5       30.01S
LANCASTER      CLEAR     68  64  86 CALM      30.02S
$$

TXZ091>094-102>105-117-120-121-131>134-251000-
NORTH CENTRAL TEXAS

CITY           SKY/WX    TMP DP  RH WIND       PRES   REMARKS
SHRMAN/DENISON CLEAR     75  70  86 SE9       30.02S
GAINESVILLE    CLEAR     72  70  94 SE6       30.03F
BOWIE          PTCLDY    71  69  91 CALM      30.02S
BRIDGEPORT     PTCLDY    73  66  78 S6        30.03S
DECATUR        PTCLDY    75  67  75 SE6       30.02F
DENTON         CLEAR     72  69  90 S6        30.01S
MCKINNEY       CLEAR     73  71  93 CALM      30.02S
GREENVILLE     CLEAR     72  68  88 SE3       30.02S
ROCKWALL       CLEAR     73  71  94 SE5       30.00S
TERRELL        CLEAR     74  72  93 SE3       30.02S
WAXAHACHIE     CLEAR     71  66  84 E3        30.03S
CLEBURNE       CLEAR     75  70  83 SE3       30.03S
GRANBURY       CLEAR     75  67  76 CALM      30.03R
$$

TXZ083>090-098>101-113>116-127>130-139>142-154-155-251000-
WESTERN NORTH TEXAS

CITY           SKY/WX    TMP DP  RH WIND       PRES   REMARKS
WICHITA FALLS  CLEAR     75  66  73 S9        29.99S
WF-KICKAPOO    CLEAR     74  65  74 SE7       30.01S
VERNON         PTCLDY    77  66  67 S6        30.00S
ABILENE        CLEAR     78  66  66 S7        30.04S
ABILENE-DYESS  CLEAR     74  66  75 S6        30.03S
BRECKENRIDGE   CLEAR     77  65  66 SE8       30.01S
GRAHAM         CLEAR     76  64  68 SE5       30.00R
MINERAL WELLS  CLEAR     73  66  78 SE10      30.00F
STEPHENVILLE   CLEAR     73  66  78 CALM      30.06R
COMANCHE       CLEAR     72  67  82 S6        30.03S
BROWNWOOD      PTCLDY    70  66  88 CALM      30.03F
COLEMAN        CLEAR     74  65  74 S3        30.05S
BRADY          CLEAR     75  64  69 CALM      30.05S
$$

TXZ143>147-156>162-174-175-251000-
CENTRAL TEXAS

CITY           SKY/WX    TMP DP  RH WIND       PRES   REMARKS
WACO           CLEAR     74  67  78 CALM      30.00S
WACO-MCGREGOR  CLEAR     72  64  78 CALM      30.02S
HILLSBORO      CLEAR     74  66  77 CALM      30.01S
CORSICANA      CLEAR     74  69  85 NE3       30.02S
MEXIA          CLEAR     73  69  88 CALM      30.00S
CAMERON        CLEAR     75  72  89 S6        29.99S
TEMPLE         CLEAR     73  66  78 SE7       30.00S
KILLEEN        CLEAR     77  70  78 S3        30.01S
KILLEEN-SKYLRK CLEAR     75  66  73 CALM      30.01R
FORT HOOD      CLEAR     77  70  79 CALM      30.01S
GATESVILLE     CLEAR     73  68  83 CALM      30.03S
HAMILTON       CLEAR     72  68  89 S13       30.03S
LAMPASAS       CLEAR     76  72  87 CALM      30.01F
$$

TXZ095>097-106>112-122>126-135>138-148>153-164>167-251000-
EAST TEXAS

CITY           SKY/WX    TMP DP  RH WIND       PRES   REMARKS
PARIS          CLEAR     72  64  78 SE7       30.04R
SULPHUR SPRNGS   N/A     71  70  97 CALM      30.05R FOG
CLARKSVILLE    CLOUDY    73  72  97 CALM      30.03S
MOUNT PLEASANT CLEAR     68  68  99 CALM      30.05S
GILMER         CLEAR     73  73 100 CALM      30.04S
MINEOLA        CLEAR     70  70 100 CALM      30.03S FOG
TYLER          CLEAR     74  70  87 SE3       30.02S
LONGVIEW       CLEAR     72  69  90 CALM      30.02R FOG
MARSHALL       CLEAR     73  71  93 CALM      30.04S
ATHENS         CLEAR     70  70 100 CALM      30.01S
JACKSONVILLE   CLEAR     74  71  89 CALM      30.05R
HENDERSON      CLEAR     70  70  99 CALM      30.04R FOG
NACOGDOCHES    CLEAR     70  70 100 CALM      30.02S
LUFKIN         CLEAR     75  71  87 CALM      30.00F
$$

SUPPLEMENTAL OBSERVATIONS (CENTRAL)

CITY           SKY/WX    TMP DP  RH WIND       PRES   REMARKS
LAKE TEXOMA      N/A     73  72  94 SE1         N/A
CADDO GRASSLND   N/A     72  68  88 S2          N/A
PAT MAYSE LAKE   N/A     72  70  94 E3          N/A
GREENVILLE       N/A     72  68  88 SE2         N/A
CEDAR HILL       N/A     75  66  73 SE3         N/A
ATHENS           N/A     75  70  83 SE5         N/A
PALESTINE        N/A     72  70  94 CALM        N/A
LAKE LIMESTONE   N/A     73  72  94 SE2         N/A
MCGREGOR         N/A     73  68  83 CALM        N/A
TEMPLE           N/A     73  68  83 SE2         N/A
$$

SUPPLEMENTAL OBSERVATIONS (WEST)

CITY           SKY/WX    TMP DP  RH WIND       PRES   REMARKS
MILLERS CREEK    N/A     75  61  60 S3          N/A
POSSUM KINGDOM   N/A     75  63  64 S5          N/A
LBJ GRASSLAND    N/A     75  64  69 SE7         N/A
GRANBURY         N/A     75  68  78 NE1         N/A
COMANCHE         N/A     73  66  78 S5          N/A
HAMBY            N/A     75  64  69 SE3         N/A
IVIE RESERVOIR   N/A     72  66  83 S1          N/A
COLORADO BEND    N/A     75  66  73 S3          N/A
$$

SUPPLEMENTAL OBSERVATIONS (EAST)

CITY           SKY/WX    TMP DP  RH WIND       PRES   REMARKS
CADDO LAKE       N/A     70  68  94 CALM        N/A
LUFKIN           N/A     72  70  94 MISG        N/A
N SABINE NF      N/A     68  66  94 MISG        N/A
$$

SUPPLEMENTAL OBSERVATIONS ARE A COLLECTION OF AUTOMATED INSTRUMENTS
THAT ARE MAINTAINED BY A VARIETY OF FEDERAL AND STATE AGENCIES.
CERTAIN ELEMENTS...SUCH AS HUMIDITY VALUES AND SUSTAINED WIND
SPEEDS...MAY BE APPROXIMATED.




USA.gov is the U.S. government's official web portal to all federal, state and local government web resources and services.